Showing default

BSAT-4A, 42951

Orbit data source: Space-Track

BSAT-4A, 42951 is a payload satellite owned by BSAT (JP) in GEO that was launched on Fri, 29 Sep 2017 UTC via an ARIANE 5ECA launch vehicle from the French Guiana (FRGUI). Payload-class satellites include a variety of spacecraft equipped with specific instruments for various scientific and technological missions. These include communications satellites like Starlink; space stations such as the ISS; scientific satellites like the Hubble; Earth observation satellites from companies like Planet Labs, Umbra, and HawkEye 360; GPS; miniature CubeSats for education and research; and military/defense satellites.

Not visible in the next 10 days
Identifier
42951, 2017-059B
Orbit
GEO
Last TLE update
1 day ago
Origin
Manufacturer
SS/Loral (MDA)
Mission
Operational Commercial Communications
Bus & Motor
LS-1300, R-4D
Mass
3,520 kg wet, ~1,800 kg dry
Launch date (UTC)
2017-09-29 (8 years ago)
Launch vehicle
ARIANE 5ECA
Launch site
French Guiana (FRGUI)
Object type
Payload
Rocket body
Debris
Shape & HBR
Box + 2 Pan, 24.7 m
Radar Cross Section
33.343 m², Large (>1 m²)

Expand to show TLE details & history

TLE from 1 day ago
0 BSAT-4A
1 42951U 17059B   25190.90273743 -.00000337  00000-0  00000-0 0  9999
2 42951   0.0462  47.8358 0003872  29.7735 285.2944  1.00271395 28364
Epoch: 2025-07-09T21:39Z
TLE epoch observation values (Epoch: 2025-07-09T21:39:56.513Z)
Latitude
-0.04511°
Longitude
109.80137°
Altitude
35,781.954 km
Speed
3.075 km/s
True Right ascension
00h 11m 27s
True Declination
0° 02' 42"
Sunlit
Object was in daylight at epoch
Visualization orbit readout
Latitude
-0.00708°
Longitude
145.1514°
Altitude
35,773.752 km
Speed
3.076 km/s
Apparent Right ascension
02h 18m 56s
Apparent Declination
-5° 02' 10"
Sunlit
Object is in daylight
Visualization observer readout
Local Sidereal Time
12:13:07
Azimuth
312.595° NW
Elevation
-45.078°
Doppler factor
1
Orbital elements
Apogee altitude
35,804.101 km
Perigee altitude
35,771.448 km
Semi-major axis
42,165.912 km
Eccentricity
0.00039
Inclination
0.0462°
RAAN
47.8358°
Arg. of periapsis
29.7735°
True anomaly
Unknown
Mean anomaly
285.2944°
Eccentric anomaly
Unknown
Mean motion
0.25067 °/min
Orbital period
1,436.16 mins
BSTAR
0
Loading historical data...
42951 neighbors
Loading maneuver chart data...
Loading SW <> Apogee altitude chart data...
Loading historical data...
Loading historical data...
Loading historical data...
Loading historical data...
Loading historical data...
Loading historical data...
Loading historical data...
Other satellites on launch #59 in the year 2017 (2017-09-29 UTC)

BSAT-4A Visibility

Observer location: undefined°, undefined°

BSAT-4A is likely not visible in the next few days
Span
Click to sort rows by Start time (UTC) header in descending order
Start Az.
Max El. time (UTC)
Max El. Az.
Max El.
End time (UTC)
End Az.
|